Weather History for Vacaville, CA

Change the Weather History Date:

Wednesday, February 26, 2014

  Actual Average Record
Temperature  
Mean Temperature 56 °F -  
Max Temperature 59 °F 65 °F 82 °F (1968)
Min Temperature 53 °F 41 °F 28 °F (2011)
Degree Days  
Heating Degree Days 9    
Growing Degree Days 6 (Base 50)    
Moisture  
Dew Point 52 °F    
Average Humidity 91    
Maximum Humidity 100    
Minimum Humidity 58    
Precipitation  
Precipitation 1.04 in - - ()
Sea Level Pressure  
Sea Level Pressure 29.82 in    
Wind  
Wind Speed 9 mph (South)    
Max Wind Speed 22 mph    
Max Gust Speed 31 mph    
Visibility 6 miles    
Events Rain    
Averages and records for this station are not official NWS values.
T = Trace of Precipitation, MM = Missing Value Source: NWS Daily Summary

Daily Weather History Graph

Daily Weather History Graph

Search for Another Location

Airport:

Trip Planner

Search our weather history database for the weather conditions in past years. The results will help you decide how hot, cold, wet, or windy it might be!

Date:

Astronomy

Feb. 26, 2014 Rise Set
Actual Time 6:43 AM PST 5:58 PM PST
Civil Twilight 6:17 AM PST 6:24 PM PST
Nautical Twilight 5:46 AM PST 6:55 PM PST
Astronomical Twilight 5:16 AM PST 7:26 PM PST
Moon 4:32 AM PST (2/26) 3:20 PM PST (2/26)
Length of Visible Light 12h 07m
Length of Day
11h 14m
Waning Crescent, 9% of the Moon is Illuminated
Feb 26
Waning Crescent
Mar 1
New
Mar 8
First Quarter
Mar 16
Full
Mar 23
Last Quarter

Hourly Weather History & Observations

Time (PST) Temp. Dew Point Humidity Pressure Visibility Wind Dir Wind Speed Gust Speed Precip Events Conditions
12:53 AM 59.0 °F 44.1 °F 58% 29.91 in 10.0 mi SW 9.2 mph - N/A   Clear
1:53 AM 55.9 °F 45.0 °F 67% 29.92 in 10.0 mi SSW 6.9 mph - N/A   Mostly Cloudy
2:53 AM 54.0 °F 46.9 °F 77% 29.93 in 10.0 mi WSW 15.0 mph 21.9 mph N/A   Partly Cloudy
3:53 AM 54.0 °F 48.0 °F 80% 29.94 in 10.0 mi SW 15.0 mph 21.9 mph N/A   Overcast
4:53 AM 55.0 °F 46.9 °F 74% 29.93 in 10.0 mi SSW 6.9 mph 16.1 mph N/A   Overcast
5:53 AM 54.0 °F 48.0 °F 80% 29.92 in 9.0 mi Calm Calm - 0.00 in Rain Light Rain
6:53 AM 54.0 °F 48.9 °F 83% 29.93 in 10.0 mi SW 3.5 mph - 0.01 in   Overcast
7:53 AM 54.0 °F 48.9 °F 83% 29.95 in 10.0 mi SW 10.4 mph - 0.01 in Rain Light Rain
8:53 AM 53.1 °F 51.1 °F 93% 29.97 in 8.0 mi SE 4.6 mph - 0.02 in Rain Light Rain
9:53 AM 53.1 °F 51.1 °F 93% 29.97 in 6.0 mi Calm Calm - 0.04 in Rain Light Rain
10:24 AM 53.1 °F 51.1 °F 93% 29.96 in 7.0 mi SE 4.6 mph - 0.00 in   Overcast
10:44 AM 53.1 °F 52.0 °F 96% 29.96 in 4.0 mi ESE 5.8 mph - 0.01 in Rain Light Rain
10:53 AM 53.1 °F 53.1 °F 100% 29.96 in 4.0 mi SE 6.9 mph - 0.01 in Rain Light Rain
11:17 AM 54.0 °F 52.0 °F 93% 29.95 in 5.0 mi ESE 5.8 mph - 0.00 in Rain Light Rain
11:53 AM 55.0 °F 52.0 °F 89% 29.94 in 6.0 mi ESE 6.9 mph - 0.00 in   Overcast
12:40 PM 55.9 °F 51.1 °F 84% 29.91 in 9.0 mi ESE 8.1 mph - N/A   Overcast
12:53 PM 55.9 °F 51.1 °F 84% 29.91 in 8.0 mi SE 5.8 mph - N/A   Overcast
1:31 PM 57.0 °F 53.1 °F 87% 29.87 in 7.0 mi ESE 9.2 mph - 0.00 in   Overcast
1:53 PM 55.9 °F 53.1 °F 90% 29.86 in 6.0 mi ESE 5.8 mph - 0.00 in   Overcast
2:36 PM 55.9 °F 54.0 °F 93% 29.84 in 5.0 mi SE 5.8 mph - 0.04 in   Overcast
2:53 PM 55.9 °F 53.1 °F 90% 29.83 in 6.0 mi SE 5.8 mph - 0.04 in   Overcast
3:24 PM 55.9 °F 53.1 °F 90% 29.82 in 1.8 mi Calm Calm - 0.03 in Rain Rain
3:38 PM 55.0 °F 53.1 °F 93% 29.81 in 2.5 mi Calm Calm - 0.06 in Rain Light Rain
3:53 PM 55.0 °F 54.0 °F 96% 29.81 in 2.0 mi West 3.5 mph - 0.10 in Rain Rain
4:14 PM 54.0 °F 53.1 °F 97% 29.80 in 1.5 mi WNW 3.5 mph - 0.06 in Rain Rain
4:22 PM 55.0 °F 54.0 °F 96% 29.79 in 3.0 mi Calm Calm - 0.07 in Rain Light Rain
4:53 PM 55.9 °F 51.1 °F 84% 29.77 in 7.0 mi SE 11.5 mph 21.9 mph 0.07 in   Overcast
5:53 PM 55.9 °F 52.0 °F 87% 29.75 in 8.0 mi SSE 9.2 mph 23.0 mph N/A   Overcast
6:53 PM 55.0 °F 53.1 °F 93% 29.70 in 5.0 mi ESE 12.7 mph 21.9 mph 0.10 in Rain Rain
7:34 PM 55.0 °F 54.0 °F 96% 29.73 in 7.0 mi SSE 10.4 mph 23.0 mph 0.02 in Rain Light Rain
7:53 PM 55.0 °F 54.0 °F 96% 29.73 in 4.0 mi SSE 17.3 mph 25.3 mph 0.06 in Rain Light Rain
8:49 PM 55.4 °F 53.6 °F 94% 29.71 in 2.5 mi South 8.1 mph 17.3 mph 0.16 in Rain Rain
8:53 PM 54.0 °F 54.0 °F 100% 29.71 in 1.8 mi SSE 15.0 mph 23.0 mph 0.19 in Rain Heavy Rain
9:04 PM 54.0 °F 54.0 °F 100% 29.72 in 2.0 mi SSE 21.9 mph 31.1 mph 0.08 in Rain Heavy Rain
9:12 PM 54.0 °F 54.0 °F 100% 29.71 in 1.5 mi SSE 13.8 mph 28.8 mph 0.14 in Rain Heavy Rain
9:19 PM 54.0 °F 54.0 °F 100% 29.69 in 2.5 mi SE 13.8 mph 19.6 mph 0.16 in Rain Rain
9:27 PM 54.0 °F 54.0 °F 100% 29.69 in 4.0 mi SSE 19.6 mph 31.1 mph 0.17 in Rain Light Rain
9:49 PM 53.6 °F 53.6 °F 100% 29.72 in 2.0 mi SSW 17.3 mph 28.8 mph 0.25 in Rain Rain
9:50 PM 55.0 °F 54.0 °F 96% 29.71 in 2.0 mi South 18.4 mph 26.5 mph 0.25 in Rain Rain
9:53 PM 55.0 °F 54.0 °F 96% 29.71 in 3.0 mi SSE 18.4 mph 28.8 mph 0.00 in Rain Light Rain
10:03 PM 55.0 °F 54.0 °F 96% 29.72 in 4.0 mi South 13.8 mph 23.0 mph 0.03 in Rain Rain
10:09 PM 54.0 °F 54.0 °F 100% 29.72 in 3.0 mi South 12.7 mph - 0.04 in Rain Light Rain
10:21 PM 55.0 °F 54.0 °F 96% 29.72 in 6.0 mi South 11.5 mph - 0.05 in Rain Light Rain
10:33 PM 55.0 °F 55.0 °F 100% 29.72 in 7.0 mi South 9.2 mph - 0.06 in Rain Light Rain
10:53 PM 55.9 °F 55.0 °F 97% 29.72 in 4.0 mi SSW 10.4 mph 18.4 mph 0.09 in Rain Rain
11:04 PM 54.0 °F 52.0 °F 93% 29.73 in 4.0 mi SSW 16.1 mph 24.2 mph 0.05 in Rain Heavy Rain
11:29 PM 55.0 °F 53.1 °F 93% 29.72 in 10.0 mi SW 11.5 mph 19.6 mph 0.05 in   Mostly Cloudy
11:38 PM 55.9 °F 53.1 °F 90% 29.73 in 10.0 mi SSW 13.8 mph 20.7 mph 0.05 in   Mostly Cloudy
11:53 PM 55.9 °F 53.1 °F 90% 29.73 in 10.0 mi SSW 12.7 mph 21.9 mph 0.05 in   Mostly Cloudy